Flag for United Kingdom Weather past 2 weeks in Weymouth, England, United Kingdom

Now
53 °F

Smoke.


Feels Like: 45 °F
Forecast: 49 / 55 °F
Wind: 39 mph from West

Location: Isle Of Portland

Current Time: May 6, 2015 at 12:29:50 PM

Latest Report: May 6, 2015 at 11:00 AM


Visibility: 5 mi

Pressure: 29.65 "Hg

Humidity: 78%

Dew point: 46 °F

Location of WeymouthLocation

Historic Weather in Weymouth — Graph

°F

Weymouth temperature yesterday

Maximum temperature yesterday: 55 °F (at 3:00 PM)
Minimum temperature yesterday: 50 °F (at 11:00 PM)
Average temperature yesterday: 53 °F

Past Weeks' High & Low Weather Summary

 TemperatureHumidityPressure
High57 °F (Apr 21, 1:00 PM)100% (Apr 24, 9:00 PM)30.52 "Hg (Apr 24, 9:00 PM)
Low40 °F (Apr 27, 6:00 AM)51% (Apr 21, 3:00 PM)29.15 "Hg (May 5, 4:00 AM)
Average50 °F83%29.84 "Hg
* Reported Apr 21 11:00 AM — May 6 11:00 AM, Weymouth, Weather by CustomWeather, © 2015

Note: Actual official high and low records may vary slightly from our data, if they occured in-between our weather recording intervals... More about our weather records

Advertising

Weymouth weather history for previous 24 hours

 ConditionsComfort  
Time TempWeatherWind HumidityBarometerVisibility
11:00 AM
Wed, May 6
53 °FSmoke.39 mph78%29.65 "Hg5 mi
10:00 AM52 °FSmoke.36 mph80%29.63 "Hg6 mi
9:00 AM51 °FCool.31 mph90%29.61 "Hg4 mi
8:00 AM51 °FSmoke.30 mph83%29.60 "Hg5 mi
7:00 AM50 °FSmoke.28 mph85%29.60 "Hg7 mi
6:00 AM49 °FCool.28 mph86%29.59 "Hg6 mi
5:00 AM49 °FRain showers. Overcast.26 mph88%29.59 "Hg3 mi
4:00 AM49 °FCool.25 mph93%29.59 "Hg5 mi
3:00 AM48 °FRain. Overcast.28 mph92%29.59 "Hg1 mi
2:00 AM50 °FSmoke.25 mph88%29.60 "Hg5 mi
1:00 AM50 °FCool.26 mph89%29.61 "Hg6 mi
12:00 AM51 °FLots of rain. Overcast.29 mph90%29.61 "Hg3 mi
11:00 PM
Tue, May 5
50 °FCool.30 mph89%29.60 "Hg5 mi
10:00 PM51 °FSmoke.31 mph86%29.60 "Hg5 mi
9:00 PM51 °FSmoke.32 mph86%29.59 "Hg4 mi
8:00 PM52 °FSmoke.32 mph83%29.58 "Hg4 mi
7:00 PM52 °FSmoke.29 mph82%29.58 "Hg4 mi
6:00 PM54 °FSmoke.30 mph78%29.56 "Hg4 mi
5:00 PM54 °FSmoke.32 mph76%29.55 "Hg6 mi
4:00 PM54 °FSmoke.35 mph75%29.54 "Hg4 mi
3:00 PM55 °FSmoke.31 mph75%29.54 "Hg5 mi
2:00 PM55 °FSmoke.31 mph75%29.53 "Hg6 mi
1:00 PM54 °FSmoke.35 mph76%29.50 "Hg5 mi
12:00 PM53 °FSmoke.30 mph77%29.47 "Hg6 mi
Weather by CustomWeather, © 2015

See weather overviewHow to use our weather pages